Location: Arrington
(35.8681°N, 86.7092°W)
Time: 08:39:16
(UTC+00:00)

Okean O Rocket - Pass Details

Date: 23 November 2019
Orbit: 622 x 645 km, 98.2° (Epoch: 10 December)

Event Time Altitude Azimuth Distance (km) Brightness Sun altitude
Rises 11:08:26 0° 15° (NNE) 2,908 5.0 -16.6°
Reaches altitude 10° 11:10:39 10° 18° (NNE) 1,999 4.2 -16.1°
Maximum altitude 11:14:58 69° 102° (ESE) 669 1.9 -15.3°
Drops below altitude 10° 11:19:18 10° 186° (S) 1,994 4.3 -14.5°
Sets 11:21:29 0° 188° (S) 2,900 5.1 -14.0°
